Simultaneous Nadir Overpasses (SNOs) Predictions

Prediction of SNOs between GOES-16 and TERRA Satellite Orbit:

Table of predicted SNOs for the next 14.0 days since TLE Epoch: 11/2/2019
Index Date Time (GOES-16) GOES-16 Lat,Lon TERRA Lat,Lon Distance(km) Time Diff (sec)
1 11/02/2019 15:14:10 0.01, -75.20 -0.93, -70.86 493.20 80
2 11/03/2019 03:35:34 -0.01, -75.19 -0.19, -76.05 97.24 80
3 11/05/2019 03:20:43 -0.00, -75.20 0.47, -73.10 239.78 80
4 11/05/2019 15:41:58 0.00, -75.20 0.65, -78.25 346.06 80
5 11/07/2019 15:29:47 0.00, -75.22 -0.01, -75.30 8.40 80
6 11/09/2019 15:17:35 -0.00, -75.24 -0.61, -72.33 330.66 80
7 11/10/2019 03:41:38 0.00, -75.25 -0.50, -77.52 259.06 80
8 11/12/2019 03:26:48 0.01, -75.27 0.17, -74.57 80.16 80
9 11/14/2019 03:14:36 0.01, -75.30 0.79, -71.61 419.48 80
10 11/14/2019 15:35:51 -0.01, -75.31 0.28, -76.77 165.97 80




NCC Satellite Simultaneous Nadir Overpasses (SNOs) Prediction Service
